LA5NNA Lyngdal NO current weather conditions

sailwx.info

Wind from 114 at 2 knots gusting 6

Air temperature 20.0° C
Dewpoint 14.6° C

Last reported at 2020-Aug-10 18:05 UTC.
Time now 2020-Aug-10 18:52 UTC

Location: N 58°01' E 007°00'.
View on Google Maps.

See reports from other nearby stations

  
Tides and Currents Weather Stations Pressure Air Temp Water Temp Dewpoint Dewpoint Depression Visibility Wind Speed Wind Dir Waves Ship Positions
date/time (UTC)wind fromknots sea level pressurealtimeterstation pressurevisibilityair tempwater tempwave heightnotes
2020-Aug-10 18:05 114 2 gusting 6 20.0
2020-Aug-10 17:55 140 2 gusting 5 20.6
2020-Aug-10 17:50 118 2 gusting 6 20.6
2020-Aug-10 17:45 103 3 gusting 7 20.6
2020-Aug-10 17:40 130 2 gusting 7 20.6
2020-Aug-10 17:35 131 4 gusting 6 20.6
2020-Aug-10 17:30 119 5 gusting 8 20.6
2020-Aug-10 17:25 103 2 gusting 6 20.6
2020-Aug-10 17:20 122 3 gusting 6 20.6
2020-Aug-10 17:15 124 2 gusting 4 20.6
2020-Aug-10 17:10 110 1 gusting 7 20.6
2020-Aug-10 17:05 078 2 gusting 7 20.6
2020-Aug-10 17:00 114 4 gusting 10 20.6
2020-Aug-10 16:55 127 3 gusting 7 20.6
2020-Aug-10 16:50 123 5 gusting 10 20.6
2020-Aug-10 16:45 139 4 gusting 10 20.6
2020-Aug-10 16:40 082 2 gusting 10 20.6
2020-Aug-10 16:35 106 5 gusting 10 20.6
2020-Aug-10 16:30 110 2 gusting 13 20.6
2020-Aug-10 16:25 129 4 gusting 8 21.1
2020-Aug-10 16:20 106 4 gusting 12 21.1
2020-Aug-10 16:15 142 6 gusting 12 21.1
2020-Aug-10 16:10 127 3 gusting 11 21.1
2020-Aug-10 16:05 116 5 gusting 11 21.1
2020-Aug-10 16:00 143 4 gusting 13 21.1
2020-Aug-10 15:55 127 4 gusting 8 21.1
2020-Aug-10 15:50 117 7 gusting 13 21.7
2020-Aug-10 15:45 118 4 gusting 10 21.7
2020-Aug-10 15:40 137 1 gusting 12 21.7
2020-Aug-10 15:35 138 2 gusting 11 21.7
2020-Aug-10 15:30 108 4 gusting 11 21.7
2020-Aug-10 15:25 128 1 gusting 13 21.7
2020-Aug-10 15:20 113 2 gusting 10 21.7
2020-Aug-10 15:15 111 3 gusting 10 21.7
2020-Aug-10 15:10 135 2 gusting 8 21.7
2020-Aug-10 15:05 147 5 gusting 14 21.7
2020-Aug-10 15:00 101 5 gusting 14 21.7
2020-Aug-10 14:55 123 6 gusting 13 21.7
2020-Aug-10 14:50 128 6 gusting 13 21.7
2020-Aug-10 14:45 129 5 gusting 15 21.7
2020-Aug-10 14:40 140 7 gusting 13 21.7
2020-Aug-10 14:35 133 7 gusting 15 21.7
2020-Aug-10 14:30 134 4 gusting 14 21.7
2020-Aug-10 14:25 140 5 gusting 15 21.7
2020-Aug-10 14:20 143 6 gusting 15 22.2
2020-Aug-10 14:15 134 6 gusting 14 22.2
2020-Aug-10 14:10 143 5 gusting 13 22.2
2020-Aug-10 14:05 136 6 gusting 14 22.2
2020-Aug-10 14:00 119 5 gusting 13 22.8
2020-Aug-10 13:55 159 5 gusting 13 22.8
2020-Aug-10 13:50 129 6 gusting 12 22.8
2020-Aug-10 13:45 136 6 gusting 13 22.8
2020-Aug-10 13:40 137 6 gusting 13 22.8
2020-Aug-10 13:35 145 6 gusting 13 22.8
2020-Aug-10 13:30 116 4 gusting 8 22.8
2020-Aug-10 13:25 144 6 gusting 12 22.8
2020-Aug-10 13:20 155 6 gusting 12 22.8
2020-Aug-10 13:15 160 5 gusting 14 22.8
2020-Aug-10 13:10 139 6 gusting 15 22.8
2020-Aug-10 13:05 142 5 gusting 14 22.8
2020-Aug-10 13:00 131 7 gusting 14 22.8
2020-Aug-10 12:55 154 6 gusting 15 22.8
2020-Aug-10 12:50 139 6 gusting 13 22.8
2020-Aug-10 12:45 112 7 gusting 14 22.8
2020-Aug-10 12:40 154 5 gusting 11 22.8
2020-Aug-10 12:35 138 5 gusting 13 23.3
2020-Aug-10 12:30 138 7 gusting 13 23.3
2020-Aug-10 12:25 147 6 gusting 11 23.3
2020-Aug-10 12:20 137 4 gusting 14 23.3
2020-Aug-10 12:15 150 4 gusting 14 23.3
2020-Aug-10 12:10 147 5 gusting 11 23.3
2020-Aug-10 12:05 139 6 gusting 13 23.3
2020-Aug-10 12:00 159 5 gusting 10 23.3
2020-Aug-10 11:55 121 5 gusting 13 23.3
2020-Aug-10 11:50 156 6 gusting 12 23.3
2020-Aug-10 11:45 150 5 gusting 11 23.3
2020-Aug-10 11:40 151 6 gusting 11 23.3
2020-Aug-10 11:35 135 6 gusting 14 23.3
2020-Aug-10 11:30 108 2 gusting 11 23.3
2020-Aug-10 11:25 148 4 gusting 11 23.9
2020-Aug-10 11:20 121 5 gusting 10 23.9
2020-Aug-10 11:15 120 6 gusting 13 23.9
2020-Aug-10 11:10 124 5 gusting 11 23.9
2020-Aug-10 11:05 139 3 gusting 10 23.3
2020-Aug-10 11:00 137 2 gusting 12 23.3
2020-Aug-10 10:55 124 6 gusting 11 23.3
2020-Aug-10 10:50 114 5 gusting 13 23.3
2020-Aug-10 10:45 130 6 gusting 12 23.3
2020-Aug-10 10:40 122 5 gusting 13 23.3
2020-Aug-10 10:35 140 5 gusting 11 23.3
2020-Aug-10 10:30 137 4 gusting 7 23.3
2020-Aug-10 10:25 144 4 gusting 7 23.3
2020-Aug-10 10:20 123 4 gusting 8 23.3
2020-Aug-10 10:15 114 4 gusting 8 23.3
2020-Aug-10 10:10 167 4 gusting 7 23.3
2020-Aug-10 10:05 134 4 gusting 7 22.8
2020-Aug-10 10:00 159 4 gusting 12 22.8
2020-Aug-10 09:55 156 6 gusting 10 22.8
2020-Aug-10 09:50 145 4 gusting 12 22.8
2020-Aug-10 09:45 139 6 gusting 12 23.3
2020-Aug-10 09:40 142 4 gusting 8 22.8
2020-Aug-10 09:35 187 5 gusting 7 22.8
2020-Aug-10 09:30 157 3 gusting 6 22.8
2020-Aug-10 09:25 127 5 gusting 7 22.8
2020-Aug-10 09:20 167 5 gusting 8 22.8
2020-Aug-10 09:15 119 2 gusting 6 22.8
2020-Aug-10 09:10 226 1 gusting 6 22.8
2020-Aug-10 09:05 139 2 gusting 6 22.8
2020-Aug-10 09:00 134 1 gusting 5 22.8
2020-Aug-10 08:55 112 2 gusting 6 22.2
2020-Aug-10 08:50 132 4 gusting 6 22.2
2020-Aug-10 08:45 094 4 gusting 6 22.2
2020-Aug-10 08:40 098 2 gusting 6 22.2
2020-Aug-10 08:35 133 2 gusting 6 21.7
2020-Aug-10 08:30 127 1 gusting 4 21.7
2020-Aug-10 08:25 139 2 gusting 6 21.7
2020-Aug-10 08:20 067 4 gusting 8 21.7
2020-Aug-10 08:15 128 2 gusting 6 21.1
2020-Aug-10 08:10 109 3 gusting 6 21.1
2020-Aug-10 08:05 105 3 gusting 6 21.1
2020-Aug-10 08:00 082 3 gusting 10 20.6
2020-Aug-10 07:55 081 4 gusting 11 20.6
2020-Aug-10 07:50 100 5 gusting 8 20.6
2020-Aug-10 07:45 088 5 gusting 8 20.0
2020-Aug-10 07:40 091 4 gusting 6 20.0
2020-Aug-10 07:35 074 2 gusting 6 20.0
2020-Aug-10 07:30 075 1 gusting 6 19.4
2020-Aug-10 07:25 065 1 gusting 6 19.4
2020-Aug-10 07:20 075 2 gusting 6 19.4
2020-Aug-10 07:15 063 2 gusting 6 18.9
2020-Aug-10 07:10 062 2 gusting 6 18.9
2020-Aug-10 07:05 047 2 gusting 6 18.9
2020-Aug-10 07:00 047 2 gusting 7 18.3
2020-Aug-10 06:55 066 2 gusting 6 18.3
2020-Aug-10 06:50 041 1 gusting 6 18.3
2020-Aug-10 06:45 068 2 gusting 7 18.3
2020-Aug-10 06:40 043 4 gusting 7 17.8
2020-Aug-10 06:35 078 2 gusting 6 17.8
2020-Aug-10 06:30 059 2 gusting 6 17.8
2020-Aug-10 06:25 062 2 gusting 6 17.8
2020-Aug-10 06:20 035 2 gusting 7 17.2
2020-Aug-10 06:15 044 3 gusting 7 17.2
2020-Aug-10 06:10 041 3 gusting 8 17.2
2020-Aug-10 06:05 043 4 gusting 7 17.2
2020-Aug-10 06:00 041 3 gusting 8 17.2
2020-Aug-10 05:55 039 4 gusting 7 16.7
2020-Aug-10 05:50 020 3 gusting 7 16.7
2020-Aug-10 05:45 032 4 gusting 8 16.7
2020-Aug-10 05:40 036 2 gusting 6 16.7
2020-Aug-10 05:35 031 3 gusting 7 16.7
2020-Aug-10 05:30 040 2 gusting 6 16.7
2020-Aug-10 05:25 034 4 gusting 7 16.7
2020-Aug-10 05:20 016 1 gusting 6 16.7
2020-Aug-10 05:15 034 2 gusting 7 16.7
2020-Aug-10 05:10 076 1 gusting 5 16.7
2020-Aug-10 05:05 075 1 gusting 6 16.7
2020-Aug-10 05:00 038 1 gusting 5 16.7
2020-Aug-10 04:55 124 1 gusting 6 16.1
2020-Aug-10 04:50 201 0 gusting 4 16.1
2020-Aug-10 04:45 147 1 gusting 4 16.1
2020-Aug-10 04:40 070 0 gusting 2 16.1
2020-Aug-10 04:35 217 0 gusting 4 16.1
2020-Aug-10 04:30 308 1 gusting 6 16.1
2020-Aug-10 04:25 082 0 gusting 6 16.1
2020-Aug-10 04:20 231 0 gusting 4 16.1
2020-Aug-10 04:15 249 0 gusting 2 16.1
2020-Aug-10 04:10 215 0 gusting 2 16.1
2020-Aug-10 04:05 181 0 gusting 2 16.1
2020-Aug-10 04:00 278 0 gusting 2 15.6
2020-Aug-10 03:55 219 0 gusting 2 15.6
2020-Aug-10 03:50 250 0 gusting 4 15.6
2020-Aug-10 03:45 262 0 gusting 2 15.6
2020-Aug-10 03:40 265 0 gusting 2 15.6
2020-Aug-10 03:35 219 0 gusting 2 15.6
2020-Aug-10 03:30 235 0 gusting 4 15.6
2020-Aug-10 03:25 206 1 gusting 2 15.6
2020-Aug-10 03:20 224 1 gusting 2 15.6
2020-Aug-10 03:15 199 0 gusting 2 15.6
2020-Aug-10 03:10 155 0 gusting 1 15.6
2020-Aug-10 03:05 188 0 gusting 1 15.6
2020-Aug-10 03:00 200 0 gusting 1 15.6
2020-Aug-10 02:55 206 0 gusting 1 15.6
2020-Aug-10 02:50 177 0 gusting 2 15.6
2020-Aug-10 02:45 154 0 gusting 2 15.6
2020-Aug-10 02:40 111 0 gusting 4 15.6
2020-Aug-10 02:35 138 1 gusting 1 15.6
2020-Aug-10 02:30 157 0 gusting 1 15.6
2020-Aug-10 02:25 159 1 gusting 1 15.6
2020-Aug-10 02:20 160 0 gusting 1 15.6
2020-Aug-10 02:15 141 0 gusting 1 15.6
2020-Aug-10 02:10 098 0 gusting 1 15.6
2020-Aug-10 02:05 052 0 gusting 0 15.6
2020-Aug-10 02:00 027 0 gusting 2 15.6
2020-Aug-10 01:55 356 2 gusting 4 15.6
2020-Aug-10 01:50 323 1 gusting 2 15.6
2020-Aug-10 01:45 291 0 gusting 0 15.6
2020-Aug-10 01:40 171 0 gusting 0 15.6
2020-Aug-10 01:35 343 0 gusting 2 15.6
2020-Aug-10 01:30 332 0 gusting 1 15.6
2020-Aug-10 01:25 336 0 gusting 1 15.6
2020-Aug-10 01:20 247 0 gusting 1 16.1
2020-Aug-10 01:15 138 0 gusting 0 16.1
2020-Aug-10 01:10 144 0 gusting 1 16.1
2020-Aug-10 01:05 241 0 gusting 1 16.1
2020-Aug-10 01:00 203 0 gusting 1 16.1
2020-Aug-10 00:55 139 0 gusting 1 16.1
2020-Aug-10 00:50 175 0 gusting 1 16.1
2020-Aug-10 00:40 086 0 gusting 1 16.1
2020-Aug-10 00:35 211 0 gusting 0 16.1
2020-Aug-10 00:30 205 0 gusting 1 16.1
2020-Aug-10 00:25 305 0 gusting 0 16.1
2020-Aug-10 00:20 104 0 gusting 1 16.1
2020-Aug-10 00:15 135 0 gusting 1 16.1
2020-Aug-10 00:10 142 0 gusting 1 16.1
2020-Aug-10 00:05 120 0 gusting 2 16.1
2020-Aug-10 00:00 104 1 gusting 2 16.1
2020-Aug-09 23:55 059 0 gusting 0 16.7
2020-Aug-09 23:50 077 0 gusting 0 16.7
2020-Aug-09 23:45 341 0 gusting 2 16.7
2020-Aug-09 23:40 081 1 gusting 1 16.1
2020-Aug-09 23:35 104 1 gusting 2 16.1
2020-Aug-09 23:30 104 2 gusting 2 16.1
2020-Aug-09 23:25 086 1 gusting 2 16.1
2020-Aug-09 23:20 101 2 gusting 2 16.1
2020-Aug-09 23:10 079 0 gusting 1 16.7
2020-Aug-09 23:05 282 0 gusting 2 16.7
2020-Aug-09 22:55 034 0 gusting 1 16.7
2020-Aug-09 22:50 083 0 gusting 1 16.7
2020-Aug-09 22:45 303 0 gusting 2 16.7
2020-Aug-09 22:40 033 0 gusting 2 16.7
2020-Aug-09 22:35 057 0 gusting 1 16.7
2020-Aug-09 22:30 065 0 gusting 2 16.7
2020-Aug-09 22:25 355 0 gusting 1 16.7
2020-Aug-09 22:20 279 0 gusting 0 16.7
2020-Aug-09 22:15 184 16.7
2020-Aug-09 22:10 260 16.7
2020-Aug-09 22:05 356 0 gusting 2 16.7
2020-Aug-09 22:00 309 0 gusting 1 16.7
2020-Aug-09 21:55 123 0 gusting 1 16.7
2020-Aug-09 21:50 027 0 gusting 1 16.7
2020-Aug-09 21:45 076 0 gusting 2 16.7
2020-Aug-09 21:40 066 1 gusting 4 17.2
2020-Aug-09 21:35 092 1 gusting 2 17.2
2020-Aug-09 21:30 041 1 gusting 2 17.2
2020-Aug-09 21:25 072 2 gusting 2 17.2
2020-Aug-09 21:20 084 2 gusting 2 17.2
2020-Aug-09 21:15 075 1 gusting 2 17.2
2020-Aug-09 21:10 057 2 gusting 2 17.2
2020-Aug-09 21:05 066 2 gusting 2 17.2
2020-Aug-09 20:55 001 0 gusting 0 17.2
2020-Aug-09 20:50 069 0 gusting 1 17.2
2020-Aug-09 20:45 004 0 gusting 1 17.2
2020-Aug-09 20:40 007 0 gusting 0 17.2
2020-Aug-09 20:35 013 0 gusting 1 17.8
2020-Aug-09 20:30 319 0 gusting 1 17.8
2020-Aug-09 20:25 001 0 gusting 0 17.8
2020-Aug-09 20:20 17.8
2020-Aug-09 20:15 330 0 gusting 1 17.8
2020-Aug-09 20:10 342 0 gusting 1 17.8
2020-Aug-09 20:05 346 0 gusting 0 17.8
2020-Aug-09 20:00 153 0 gusting 1 18.3
2020-Aug-09 19:55 301 0 gusting 0 18.3
2020-Aug-09 19:50 345 0 gusting 0 18.3
2020-Aug-09 19:45 322 0 gusting 0 18.3
2020-Aug-09 19:40 302 18.3
2020-Aug-09 19:35 077 18.3
2020-Aug-09 19:30 290 18.9
2020-Aug-09 19:25 026 0 gusting 0 18.9
2020-Aug-09 19:20 087 0 gusting 0 18.9
2020-Aug-09 19:15 082 0 gusting 0 18.9
2020-Aug-09 19:10 135 0 gusting 0 18.9
2020-Aug-09 19:05 241 0 gusting 0 18.9
2020-Aug-09 19:00 228 0 gusting 1 18.9
2020-Aug-09 18:55 247 0 gusting 1 18.9
2020-Aug-09 18:50 258 0 gusting 1 18.9
2020-Aug-09 18:45 253 0 gusting 1 18.9
2020-Aug-09 18:40 251 0 gusting 2 18.9
2020-Aug-09 18:35 263 1 gusting 2 19.4
2020-Aug-09 18:30 263 1 gusting 2 19.4
2020-Aug-09 18:25 265 1 gusting 2 19.4
2020-Aug-09 18:20 275 1 gusting 4 19.4
2020-Aug-09 18:15 275 1 gusting 2 19.4
2020-Aug-09 18:10 272 1 gusting 2 19.4
2020-Aug-09 18:05 263 1 gusting 2 19.4
2020-Aug-09 18:00 254 1 gusting 4 19.4
2020-Aug-09 17:55 274 1 gusting 2 19.4
2020-Aug-09 17:50 290 1 gusting 4 19.4
2020-Aug-09 17:45 303 1 gusting 2 19.4
2020-Aug-09 17:40 280 1 gusting 5 19.4
2020-Aug-09 17:35 297 2 gusting 5 19.4
2020-Aug-09 17:30 263 1 gusting 4 19.4
2020-Aug-09 17:25 207 1 gusting 2 19.4
2020-Aug-09 17:20 233 2 gusting 4 19.4
2020-Aug-09 17:15 222 1 gusting 4 19.4
2020-Aug-09 17:10 210 2 gusting 4 19.4
2020-Aug-09 17:05 223 2 gusting 5 19.4
2020-Aug-09 16:55 201 2 gusting 5 19.4
2020-Aug-09 16:50 198 2 gusting 5 19.4
2020-Aug-09 16:45 191 4 gusting 6 19.4
2020-Aug-09 16:40 190 4 gusting 6 19.4
2020-Aug-09 16:35 199 4 gusting 6 19.4
2020-Aug-09 16:30 188 5 gusting 6 19.4
2020-Aug-09 16:25 198 4 gusting 6 19.4
2020-Aug-09 16:20 189 4 gusting 6 19.4
2020-Aug-09 16:15 184 4 gusting 7 19.4
2020-Aug-09 16:10 180 5 gusting 6 20.0
2020-Aug-09 16:05 187 4 gusting 6 20.0
2020-Aug-09 16:00 185 5 gusting 7 20.0
2020-Aug-09 15:55 187 5 gusting 6 20.0
2020-Aug-09 15:50 189 6 gusting 7 20.0
2020-Aug-09 15:45 187 6 gusting 7 20.0
2020-Aug-09 15:40 189 6 gusting 8 20.0
2020-Aug-09 15:35 190 6 gusting 7 20.0
2020-Aug-09 15:30 185 6 gusting 10 20.0
2020-Aug-09 15:25 187 6 gusting 8 20.0
2020-Aug-09 15:20 190 6 gusting 8 20.0
2020-Aug-09 15:15 190 6 gusting 10 20.0
2020-Aug-09 15:10 190 7 gusting 10 20.0
2020-Aug-09 15:05 185 6 gusting 8 20.0
2020-Aug-09 15:00 188 6 gusting 8 20.0
2020-Aug-09 14:55 190 6 gusting 8 20.0
2020-Aug-09 14:50 189 7 gusting 10 20.0
2020-Aug-09 14:45 189 6 gusting 10 20.6
2020-Aug-09 14:40 188 7 gusting 11 20.6
2020-Aug-09 14:35 185 7 gusting 10 20.6
2020-Aug-09 14:30 185 7 gusting 12 20.6
2020-Aug-09 14:25 184 7 gusting 11 20.6
2020-Aug-09 14:20 188 7 gusting 11 20.6
2020-Aug-09 14:15 187 8 gusting 11 20.6
2020-Aug-09 14:10 188 8 gusting 11 20.6
2020-Aug-09 14:05 190 8 gusting 11 20.6
2020-Aug-09 14:00 190 7 gusting 12 20.6
2020-Aug-09 13:55 187 7 gusting 11 20.6
2020-Aug-09 13:50 189 7 gusting 11 20.6
2020-Aug-09 13:45 189 7 gusting 11 21.1
2020-Aug-09 13:40 187 7 gusting 12 21.1
2020-Aug-09 13:35 190 7 gusting 12 21.1
2020-Aug-09 13:30 184 8 gusting 12 21.1
2020-Aug-09 13:25 185 8 gusting 13 21.1
2020-Aug-09 13:20 186 8 gusting 13 21.1
2020-Aug-09 13:15 184 8 gusting 13 21.7
2020-Aug-09 13:10 188 8 gusting 13 21.7
2020-Aug-09 13:05 184 8 gusting 12 21.7
2020-Aug-09 13:00 187 7 gusting 12 21.7
2020-Aug-09 12:55 173 5 gusting 12 21.7
2020-Aug-09 12:50 186 7 gusting 11 22.2
2020-Aug-09 12:45 173 5 gusting 13 22.2
2020-Aug-09 12:40 160 6 gusting 12 22.2
2020-Aug-09 12:35 159 4 gusting 10 21.7
2020-Aug-09 12:30 162 6 gusting 11 21.7
2020-Aug-09 12:25 171 6 gusting 12 21.7
2020-Aug-09 12:20 151 7 gusting 12 21.7
2020-Aug-09 12:15 187 5 gusting 11 21.7
2020-Aug-09 12:10 163 7 gusting 14 21.7
2020-Aug-09 12:05 136 5 gusting 11 21.7
2020-Aug-09 12:00 182 7 gusting 11 21.7
2020-Aug-09 11:55 169 5 gusting 11 21.7
2020-Aug-09 11:45 179 6 gusting 10 21.7
2020-Aug-09 11:40 169 7 gusting 12 21.7
2020-Aug-09 11:35 188 7 gusting 12 21.7
2020-Aug-09 11:30 180 6 gusting 10 21.7
2020-Aug-09 11:25 131 5 gusting 8 21.7
2020-Aug-09 11:20 180 6 gusting 11 21.7
2020-Aug-09 11:15 166 5 gusting 10 21.1
2020-Aug-09 11:10 135 6 gusting 13 21.1
2020-Aug-09 11:05 152 5 gusting 13 21.1
2020-Aug-09 11:00 192 6 gusting 11 21.1
2020-Aug-09 10:55 185 6 gusting 10 20.6
2020-Aug-09 10:50 187 6 gusting 13 20.6
2020-Aug-09 10:45 190 6 gusting 10 20.6
2020-Aug-09 10:40 179 6 gusting 10 20.6
2020-Aug-09 10:35 185 7 gusting 11 20.6
2020-Aug-09 10:25 187 6 gusting 10 20.6
2020-Aug-09 10:20 182 6 gusting 10 20.6
2020-Aug-09 10:15 186 6 gusting 10 20.6
2020-Aug-09 10:10 186 5 gusting 7 20.6
2020-Aug-09 10:05 195 4 gusting 6 20.6
2020-Aug-09 10:00 179 5 gusting 6 20.6
2020-Aug-09 09:55 206 4 gusting 6 20.6
2020-Aug-09 09:50 196 3 gusting 6 20.6
2020-Aug-09 09:45 195 2 gusting 5 20.6
2020-Aug-09 09:40 234 2 gusting 6 20.6
2020-Aug-09 09:35 208 2 gusting 5 20.6
2020-Aug-09 09:30 202 4 gusting 6 20.6
2020-Aug-09 09:25 195 2 gusting 6 20.0
2020-Aug-09 09:20 254 1 gusting 4 20.0
2020-Aug-09 09:15 323 1 gusting 5 20.0
2020-Aug-09 09:10 290 2 gusting 5 20.0
2020-Aug-09 09:05 288 2 gusting 5 19.4
2020-Aug-09 09:00 300 2 gusting 5 19.4
2020-Aug-09 08:55 290 1 gusting 5 19.4
2020-Aug-09 08:50 298 1 gusting 4 19.4
2020-Aug-09 08:45 250 1 gusting 2 18.9
2020-Aug-09 08:40 237 0 gusting 2 18.9
2020-Aug-09 08:30 234 1 gusting 4 18.9
2020-Aug-09 08:25 260 1 gusting 4 18.9
2020-Aug-09 08:20 280 1 gusting 2 18.9
2020-Aug-09 08:15 282 1 gusting 2 18.9
2020-Aug-09 08:10 251 1 gusting 2 18.3
2020-Aug-09 08:05 286 2 gusting 4 18.3
2020-Aug-09 08:00 323 2 gusting 4 18.3
2020-Aug-09 07:55 320 1 gusting 2 17.8
2020-Aug-09 07:50 330 1 gusting 4 17.8
2020-Aug-09 07:45 330 1 gusting 2 17.2
2020-Aug-09 07:40 316 2 gusting 2 17.2
2020-Aug-09 07:35 319 1 gusting 4 16.7
2020-Aug-09 07:30 325 1 gusting 2 16.7
2020-Aug-09 07:25 321 1 gusting 4 16.7
2020-Aug-09 07:20 324 1 gusting 4 16.7
2020-Aug-09 07:15 321 1 gusting 5 16.1
2020-Aug-09 07:10 326 1 gusting 5 16.1
2020-Aug-09 07:05 338 1 gusting 5 16.1
2020-Aug-09 07:00 336 0 gusting 4 16.1
2020-Aug-09 06:55 333 1 gusting 5 15.6
2020-Aug-09 06:50 339 1 gusting 5 15.6
2020-Aug-09 06:45 335 1 gusting 4 15.6
2020-Aug-09 06:40 348 0 gusting 4 15.6
2020-Aug-09 06:35 328 0 gusting 2 15.6
2020-Aug-09 06:30 337 1 gusting 2 15.6
2020-Aug-09 06:25 019 1 gusting 5 15.6
2020-Aug-09 06:20 023 4 gusting 6 15.0
2020-Aug-09 06:15 043 2 gusting 6 15.0
2020-Aug-09 06:10 028 3 gusting 6 15.0
2020-Aug-09 06:05 069 1 gusting 6 15.0
2020-Aug-09 05:55 042 1 gusting 6 15.0
2020-Aug-09 05:50 354 1 gusting 6 15.0
2020-Aug-09 05:45 15.0
2020-Aug-09 05:40 007 2 gusting 6 15.0
2020-Aug-09 05:35 028 2 gusting 6 15.0
2020-Aug-09 05:30 003 1 gusting 4 15.0
2020-Aug-09 05:25 017 2 gusting 5 15.0
2020-Aug-09 05:20 032 1 gusting 4 15.0
2020-Aug-09 05:15 015 1 gusting 4 15.0
2020-Aug-09 05:10 014 1 gusting 4 15.0
2020-Aug-09 05:05 350 0 gusting 2 15.0
2020-Aug-09 05:00 15.0
2020-Aug-09 04:55 15.0
2020-Aug-09 04:50 035 0 gusting 4 15.0
2020-Aug-09 04:45 357 2 gusting 4 15.0
2020-Aug-09 04:40 354 2 gusting 5 15.0
2020-Aug-09 04:35 334 2 gusting 5 15.0
2020-Aug-09 04:30 002 2 gusting 5 15.0
2020-Aug-09 04:25 354 2 gusting 5 15.0
2020-Aug-09 04:20 022 1 gusting 5 15.0
2020-Aug-09 04:15 356 3 gusting 5 15.0
2020-Aug-09 04:10 350 3 gusting 6 15.0
2020-Aug-09 04:05 005 2 gusting 5 15.0
2020-Aug-09 04:00 002 2 gusting 5 15.0
2020-Aug-09 03:55 031 2 gusting 4 15.0
2020-Aug-09 03:50 017 1 gusting 6 15.0
2020-Aug-09 03:45 357 2 gusting 6 15.0
2020-Aug-09 03:40 004 2 gusting 6 15.0
2020-Aug-09 03:35 020 3 gusting 6 15.0
2020-Aug-09 03:30 027 2 gusting 6 15.0
2020-Aug-09 03:25 017 2 gusting 5 15.0
2020-Aug-09 03:20 352 2 gusting 5 15.0
2020-Aug-09 03:15 328 2 gusting 4 15.0
2020-Aug-09 03:10 307 1 gusting 4 15.0
2020-Aug-09 03:05 316 2 gusting 4 15.0
2020-Aug-09 03:00 317 2 gusting 5 15.0
2020-Aug-09 02:55 289 1 gusting 5 15.0
2020-Aug-09 02:50 174 0 gusting 1 15.0
2020-Aug-09 02:45 033 0 gusting 2 15.0
2020-Aug-09 02:40 035 0 gusting 2 15.0
2020-Aug-09 02:35 025 1 gusting 2 15.0
2020-Aug-09 02:30 044 0 gusting 1 15.0
2020-Aug-09 02:25 341 1 gusting 4 15.0
2020-Aug-09 02:20 322 3 gusting 6 15.0
2020-Aug-09 02:15 314 2 gusting 6 15.0
2020-Aug-09 02:10 311 3 gusting 6 15.6
2020-Aug-09 02:05 314 4 gusting 6 15.6
2020-Aug-09 02:00 322 1 gusting 4 15.6
2020-Aug-09 01:55 344 3 gusting 6 15.6
2020-Aug-09 01:50 349 1 gusting 4 15.6
2020-Aug-09 01:45 041 1 gusting 4 15.6
2020-Aug-09 01:40 039 1 gusting 5 15.6
2020-Aug-09 01:35 011 2 gusting 5 15.6
2020-Aug-09 01:30 029 1 gusting 2 15.6
2020-Aug-09 01:25 055 1 gusting 2 15.6
2020-Aug-09 01:20 034 1 gusting 4 15.6
2020-Aug-09 01:15 035 1 gusting 4 15.6
2020-Aug-09 01:10 048 3 gusting 6 15.6
2020-Aug-09 01:05 048 2 gusting 5 16.1
2020-Aug-09 01:00 018 2 gusting 5 16.1
2020-Aug-09 00:55 356 2 gusting 5 16.1
2020-Aug-09 00:50 011 2 gusting 5 16.1
2020-Aug-09 00:45 035 2 gusting 4 16.1
2020-Aug-09 00:40 002 1 gusting 6 16.1
2020-Aug-09 00:35 307 1 gusting 4 16.1
2020-Aug-09 00:30 290 0 gusting 4 16.1
2020-Aug-09 00:25 311 0 gusting 2 16.1
2020-Aug-09 00:20 343 0 gusting 1 16.1
2020-Aug-09 00:15 347 0 gusting 1 16.1
2020-Aug-09 00:10 292 0 gusting 2 16.1
2020-Aug-09 00:05 298 0 gusting 2 16.1
2020-Aug-09 00:00 293 0 gusting 2 16.1
2020-Aug-08 23:55 328 0 gusting 4 16.7
2020-Aug-08 23:50 318 3 gusting 5 16.7
2020-Aug-08 23:45 313 4 gusting 5 16.7
2020-Aug-08 23:40 302 2 gusting 5 16.7
2020-Aug-08 23:35 304 4 gusting 5 16.7
2020-Aug-08 23:30 311 3 gusting 6 16.7
2020-Aug-08 23:25 301 4 gusting 6 16.7
2020-Aug-08 23:20 300 3 gusting 6 16.7
2020-Aug-08 23:10 322 0 gusting 2 16.7
2020-Aug-08 23:05 336 2 gusting 4 16.7
2020-Aug-08 22:59 310 2 gusting 5 16.7
2020-Aug-08 22:54 304 2 gusting 5 16.7
2020-Aug-08 22:49 304 2 gusting 6 16.7
2020-Aug-08 22:44 303 4 gusting 6 17.2
2020-Aug-08 22:39 309 3 gusting 6 17.2
2020-Aug-08 22:34 315 4 gusting 6 17.2
2020-Aug-08 22:29 317 4 gusting 6 17.2
2020-Aug-08 22:24 315 5 gusting 6 17.2
2020-Aug-08 22:19 317 4 gusting 6 17.2
2020-Aug-08 22:14 308 5 gusting 6 17.2
2020-Aug-08 22:09 306 4 gusting 6 17.2
2020-Aug-08 22:04 303 4 gusting 6 17.2
2020-Aug-08 21:59 301 4 gusting 6 17.2
2020-Aug-08 21:54 291 5 gusting 6 17.2
2020-Aug-08 21:49 295 4 gusting 6 17.2
2020-Aug-08 21:44 302 5 gusting 6 17.2
2020-Aug-08 21:39 296 5 gusting 6 17.2
2020-Aug-08 21:34 294 5 gusting 7 17.2
2020-Aug-08 21:29 293 5 gusting 6 17.2
2020-Aug-08 21:24 295 3 gusting 6 17.2
2020-Aug-08 21:19 299 4 gusting 6 17.2
2020-Aug-08 21:14 294 5 gusting 6 17.8
2020-Aug-08 21:09 286 5 gusting 6 17.8
2020-Aug-08 21:04 293 5 gusting 7 17.8
2020-Aug-08 20:59 292 5 gusting 8 17.8
2020-Aug-08 20:54 294 5 gusting 8 17.8
2020-Aug-08 20:49 290 7 gusting 11 17.8
2020-Aug-08 20:44 286 7 gusting 12 17.8
2020-Aug-08 20:39 279 8 gusting 13 17.8
2020-Aug-08 20:34 279 7 gusting 12 17.8
2020-Aug-08 20:29 283 8 gusting 13 17.8
2020-Aug-08 20:24 290 8 gusting 13 17.8
2020-Aug-08 20:19 287 6 gusting 12 17.8
2020-Aug-08 20:14 294 7 gusting 10 17.8
2020-Aug-08 20:09 285 7 gusting 11 18.3
2020-Aug-08 20:04 285 7 gusting 11 18.3
2020-Aug-08 19:59 283 6 gusting 12 18.3
2020-Aug-08 19:54 271 7 gusting 12 18.3
2020-Aug-08 19:49 289 6 gusting 12 18.3
2020-Aug-08 19:44 268 7 gusting 13 18.3
2020-Aug-08 19:39 283 6 gusting 12 18.3
2020-Aug-08 19:34 283 8 gusting 12 18.3
2020-Aug-08 19:29 293 7 gusting 13 18.3
2020-Aug-08 19:24 266 7 gusting 11 18.9
2020-Aug-08 19:19 286 8 gusting 13 18.9
2020-Aug-08 19:14 282 8 gusting 14 18.9
2020-Aug-08 19:09 271 9 gusting 14 18.9
2020-Aug-08 19:04 267 10 gusting 13 18.9
2020-Aug-08 18:59 261 10 gusting 13 18.9
2020-Aug-08 18:54 272 8 gusting 13 19.4
2020-Aug-08 18:49 272 7 gusting 13 19.4
2020-Aug-08 18:44 273 7 gusting 13 19.4
2020-Aug-08 18:39 267 7 gusting 13 19.4
2020-Aug-08 18:34 276 7 gusting 12 19.4
2020-Aug-08 18:29 285 7 gusting 12 19.4
2020-Aug-08 18:24 291 8 gusting 13 19.4
2020-Aug-08 18:19 287 8 gusting 12 20.0
2020-Aug-08 18:14 290 7 gusting 11 20.0
2020-Aug-08 18:09 272 6 gusting 10 20.0
2020-Aug-08 18:04 289 6 gusting 10 20.0